This demonstration page uses our WeatherBlox Daily Observations layout. Learn more.

41.55636, -103.73856

Hourly Observations for December 26, 2015

Temp ( °F °C ) Dew Point ( °F °C ) Humidity (%) Winds ( mph kmh ) Pressure ( in mb ) Visibility ( mi km ) Precip ( " mm )
12:00 am 00:00 Windy with Snow Likely 18 -8 12 -11 79 79 N 23 37 30.18 1022 2 3.218688 0 0
12:48 am 00:48 Windy with Snow Likely 16 -9 10 -12 79 79 N 22 35 30.24 1024 3 4.828032 0 0
12:53 am 00:53 Windy with Snow Likely 16 -9 10 -12 79 79 N 20 31 30.24 1024 3 4.828032 0.001 0.001
1:53 am 01:53 Cloudy with Light Snow 16 -9 10 -12 79 79 N 18 30 30.27 1025 4 6.437376 0.001 0.001
2:06 am 02:06 Windy with Snow Likely 16 -9 10 -12 79 79 N 21 33 30.27 1025 3 4.828032 0 0
2:16 am 02:16 Windy with Snow Likely 18 -8 10 -12 73 73 N 21 33 30.27 1025 2.5 4.02336 0 0
2:36 am 02:36 Windy with Snow Likely 18 -8 10 -12 73 73 N 21 33 30.27 1025 1.5 2.414016 0 0
2:53 am 02:53 Windy with Snow Likely 18 -8 10 -12 73 73 N 21 33 30.27 1025 1.5 2.414016 0.001 0.001
3:53 am 03:53 Mostly Cloudy with Scattered Snow Showers 18 -8 12 -11 79 79 N 21 33 30.3 1026 1 1.609344 0.001 0.001
4:25 am 04:25 Windy with Snow Likely 18 -8 12 -11 79 79 NNW 24 39 30.36 1028 1.75 2.816352 0.001 0.001
4:35 am 04:35 Windy with Snow Likely 18 -8 12 -11 79 79 NNW 20 31 30.36 1028 2 3.218688 0.001 0.001
4:53 am 04:53 Windy with Snow Likely 18 -8 12 -11 79 79 NNW 21 33 30.39 1029 2.5 4.02336 0.001 0.001
5:13 am 05:13 Cloudy with Light Snow 18 -8 12 -11 79 79 undefined N/A 30.39 1029 2 3.218688 0.001 0.001
5:53 am 05:53 Cloudy with Light Snow 18 -8 12 -11 79 79 NNW 16 26 30.39 1029 2.5 4.02336 0.001 0.001
6:21 am 06:21 Cloudy with Light Snow 18 -8 12 -11 79 79 NW 9 15 30.42 1030 1.5 2.414016 0.001 0.001
6:41 am 06:41 Cloudy with Light Snow 18 -8 12 -11 79 79 NW 17 28 30.42 1030 2.5 4.02336 0.001 0.001
6:50 am 06:50 Cloudy with Light Snow 18 -8 10 -12 73 73 NNW 17 28 30.45 1031 3 4.828032 0 0
6:53 am 06:53 Cloudy with Light Snow 18 -8 10 -12 73 73 NW 17 28 30.45 1031 3 4.828032 0.001 0.001
7:20 am 07:20 Cloudy with Light Snow 16 -9 10 -12 79 79 NW 16 26 30.5 1033 6 9.656064 0 0
7:53 am 07:53 Cloudy 16 -9 9 -13 73 73 NW 16 26 30.53 1034 10 16.09344 0.001 0.001
8:37 am 08:37 Cloudy 16 -9 9 -13 73 73 NW 16 26 30.56 1035 7 11.265408 0.001 0.001
8:53 am 08:53 Cloudy with Light Snow 16 -9 9 -13 73 73 NW 16 26 30.56 1035 4 6.437376 0.001 0.001
9:03 am 09:03 Cloudy with Light Snow 16 -9 9 -13 73 73 NW 14 22 30.56 1035 3 4.828032 0 0
9:53 am 09:53 Cloudy 16 -9 7 -14 67 67 NW 18 30 30.59 1036 10 16.09344 0.001 0.001
10:53 am 10:53 Mostly Cloudy 18 -8 9 -13 68 68 NW 18 30 30.62 1037 10 16.09344 0 0
11:51 am 11:51 Mostly Cloudy 18 -8 7 -14 62 62 NW 17 28 30.62 1037 10 16.09344 0 0
11:53 am 11:53 Mostly Cloudy 18 -8 9 -13 68 68 NW 20 31 30.62 1037 10 16.09344 0 0
12:11 pm 12:11 Partly Cloudy 18 -8 7 -14 62 62 NW 17 28 30.62 1037 10 16.09344 0 0
12:53 pm 12:53 Sunny 18 -8 7 -14 62 62 NW 21 33 30.62 1037 10 16.09344 0 0
1:32 pm 13:32 Mostly Cloudy 19 -7 10 -12 68 68 NNW 20 31 30.59 1036 10 16.09344 0 0
1:53 pm 13:53 Cloudy 19 -7 10 -12 68 68 NNW 20 31 30.59 1036 10 16.09344 0.001 0.001
2:53 pm 14:53 Cloudy 19 -7 10 -12 68 68 NW 16 26 30.59 1036 10 16.09344 0.001 0.001
3:53 pm 15:53 Cloudy 19 -7 10 -12 68 68 NW 16 26 30.65 1038 10 16.09344 0 0
4:53 pm 16:53 Cloudy 18 -8 10 -12 73 73 NW 8 13 30.65 1038 10 16.09344 0 0
5:53 pm 17:53 Partly Cloudy 16 -9 7 -14 67 67 W 6 9 30.71 1040 10 16.09344 0 0
6:53 pm 18:53 Clear 10 -12 5 -15 79 79 WNW 7 11 30.77 1042 10 16.09344 0 0
7:53 pm 19:53 Clear 9 -13 3 -16 78 78 WNW 8 13 30.86 1045 10 16.09344 0 0
8:53 pm 20:53 Clear 3 -16 0 -18 85 85 NNW 5 7 30.95 1048 10 16.09344 0 0
9:53 pm 21:53 Clear 5 -15 0 -18 78 78 NNW 10 17 30.92 1047 10 16.09344 0 0
10:53 pm 22:53 Clear 7 -14 1 -17 78 78 NNW 15 24 30.89 1046 10 16.09344 0 0
11:53 pm 23:53 Clear 7 -14 1 -17 78 78 NNW 10 17 30.89 1046 10 16.09344 0 0

Powered by AerisWeather